[[{"header":{"parameterUnit":"m.s-1","parameterCategory":1,"la1":30.2991,"la2":30.254,"lo1":-89.0895,"lo2":-89.0444,"dy":0.0017,"dx":0.0017,"nx":28,"ny":28,"refTime":"2024-10-10T09:00:00:Z","depth":0,"parameterNumber":2,"parameterNumberName":"U-component_of_WINDS"},"data":[0,0,0,0,0,0,0,0,0,0,0,0,0,0,0,0,0,0,0,0,0,0,0,0,0,0,0,0,0,0,0,0,0,0,0,0,0,0,0,0,0,0,0,0,0,0,0,0,0,0,0,0,0,0,0,0,0,0,-3.729,-3.7292,0,-3.7462,-3.7464,-3.7466,-3.7403,-3.7399,-3.7395,-3.7391,-3.7567,-3.7575,-3.7584,0,0,0,0,0,0,0,0,0,0,0,0,0,-3.6906,-3.6914,-3.729,-3.7292,-3.7295,-3.7462,-3.7464,-3.7467,-3.7403,-3.7399,-3.7394,-3.7389,-3.7565,-3.7574,-3.7584,0,0,0,0,0,0,0,0,0,0,0,0,0,-3.7075,-3.6916,-3.729,-3.7283,-3.7284,-3.7462,-3.7464,-3.7467,-3.7404,-3.7399,-3.7393,-3.7387,-3.7561,-3.7573,-3.7586,-3.778,0,0,-3.7624,-3.7629,0,0,0,0,0,0,0,0,-3.7066,-3.7089,-3.7282,-3.7284,-3.7285,-3.7405,-3.7393,-3.7572,-3.7406,-3.7359,-3.7391,-3.7384,-3.7518,-3.7534,-3.7579,-3.7788,-3.7796,-3.7625,-3.7632,-3.7638,-3.7641,0,0,0,0,0,0,0,-3.7054,-3.7082,-3.7358,-3.7285,-3.7287,-3.7271,-3.7289,-3.7427,-3.7469,-3.7362,-3.7358,-3.738,-3.7518,-3.7567,-3.7582,-3.7798,-3.7625,-3.7636,-3.7643,-3.7648,-3.8175,-3.8181,0,0,0,0,0,0,-3.7042,-3.7072,-3.7353,-3.7363,-3.7159,-3.7283,-3.7303,-3.7373,-3.7467,-3.7476,-3.7384,-3.7376,-3.7548,-3.7568,-3.7588,-3.7821,-3.7638,-3.7649,-3.7657,-3.8168,-3.8176,-3.8183,0,0,0,0,0,0,-3.7034,-3.7067,-3.7346,-3.7217,-3.7251,-3.7296,-3.7375,-3.7379,-3.7428,-3.7484,-3.7491,-3.7427,-3.7545,-3.7571,-3.7732,-3.7826,-3.7655,-3.7666,-3.816,-3.8171,-3.8179,-3.8288,0,0,0,0,0,0,-3.7023,-3.7065,-3.7139,-3.7219,-3.7258,-3.7488,-3.7381,-3.7387,-3.745,-3.744,-3.7526,-3.7534,-3.7542,-3.7714,-3.7745,-3.784,-3.7676,-3.8152,-3.8165,-3.8176,-3.8276,-3.83,-3.8321,0,0,0,0,0,-3.701,-3.7163,-3.7143,-3.7177,-3.7352,-3.7493,-3.7515,-3.7521,-3.7458,-3.7532,-3.7568,-3.7531,-3.7811,-3.7731,-3.7765,-3.7866,-3.8146,-3.8161,-3.8175,-3.8266,-3.8296,-3.832,0,0,0,0,0,0,-3.7093,-3.7173,-3.7152,-3.7336,-3.7408,-3.7482,-3.7576,-3.7552,-3.7644,-3.7631,-3.7635,-3.7655,-3.7821,-3.786,-3.7769,-3.8058,-3.7969,-3.7991,-3.8027,-3.8055,-3.8077,-3.8063,-3.7687,0,0,0,0,0,-3.7133,-3.7241,-3.7305,-3.7461,-3.7498,-3.7532,-3.7593,-3.7592,-3.7666,-3.7696,-3.7744,-3.7818,-3.7922,-3.7991,-3.809,-3.8282,-3.8299,-3.8368,-3.839,-3.8408,-3.8427,-3.8531,-3.8562,-3.8231,-3.8231,-3.8231,0,0,-3.7216,-3.7273,-3.7341,-3.7479,-3.7535,-3.7646,-3.7558,-3.7679,-3.7761,-3.7715,-3.787,-3.7908,-3.7991,-3.8168,-3.8249,-3.8205,-3.8522,-3.8427,-3.8441,-3.845,-3.8549,-3.858,-3.8608,-3.8241,-3.8239,-3.8238,0,0,-3.7424,-3.7479,-3.7614,-3.7672,-3.7757,-3.7778,-3.7811,-3.7889,-3.7912,-3.8068,-3.8035,-3.8134,-3.8314,-3.8374,-3.8428,-3.8659,-3.8629,-3.8692,-3.8808,-3.8909,-3.8935,-3.8958,-3.9039,-3.9068,-3.8711,-3.8711,-3.8711,0,-3.7516,-3.7682,-3.7687,-3.7811,-3.7873,-3.7836,-3.7973,-3.8029,-3.8142,-3.8186,-3.8136,-3.8361,-3.8414,-3.8605,-3.8661,-3.8707,-3.8743,-3.8681,-3.8931,-3.8954,-3.8975,-3.9053,-3.9084,-3.8718,-3.8717,-3.8716,-3.8716,0,-3.7791,-3.7907,-3.8006,-3.8117,-3.819,-3.832,-3.8344,-3.8417,-3.841,-3.8436,-3.8595,-3.8658,-3.8769,-3.8815,-3.8809,-3.9005,-3.8975,-3.8929,-3.8839,-3.9014,-3.9087,-3.9117,-3.8728,-3.8725,-3.8723,-3.8722,0,0,-3.8055,-3.8166,-3.8203,-3.8252,-3.8344,-3.8434,-3.8562,-3.8671,-3.8733,-3.8814,-3.8921,-3.9074,-3.9032,-3.9093,-3.9094,-3.9183,-3.9361,-3.9125,-3.9127,-3.9165,-3.958,-3.9613,-3.9647,-3.9342,-3.9348,-3.9352,-3.9572,0,-3.8268,-3.8494,-3.8502,-3.8707,-3.8814,-3.8782,-3.8894,-3.8962,-3.8991,-3.9085,-3.9117,-3.9225,-3.9161,-3.9198,-3.9285,-3.9321,-3.9444,-3.9305,-3.9441,-3.9446,-3.9419,-3.9685,-3.9721,-3.9925,-3.9601,-3.9606,-3.9609,0,-3.8548,-3.8636,-3.8853,-3.8929,-3.8974,-3.9075,-3.9175,-3.9266,-3.9343,-3.9358,-3.9427,-3.9415,-3.9546,-3.9453,-3.9634,-3.9539,-3.9596,-3.9622,-3.963,-3.9641,-3.9536,-3.9702,-3.9991,-4.0021,-3.9654,-3.9651,-3.9648,0,-3.8716,-3.889,-3.9042,-3.9085,-3.9179,-3.925,-3.9292,-3.9364,-3.9428,-3.9516,-3.9558,-3.966,-3.9716,-3.9795,-3.9811,-3.9742,-3.9992,-3.99,-4.0007,-4.0006,-4.0059,-4.0055,-4.0359,-4.0099,-4.0098,-4.0097,-4.0097,0,-3.8953,-3.9086,-3.9118,-3.9211,-3.936,-3.9368,-3.9515,-3.9552,-3.9616,-3.9715,-3.9694,-3.9788,-3.9804,-3.9901,-3.9915,-4.0062,-4.0087,-4.0102,-4.0104,-4.0103,-4.0101,-4.0138,-4.0124,-4.0106,-4.0104,-4.0102,-4.0101,0,-3.9165,-3.9192,-3.9355,-3.9431,-3.9453,-3.9559,-3.9623,-3.9712,-3.9739,-3.9865,-3.9895,-3.9937,-4.0051,-4.0075,-4.021,-4.0219,-4.0393,-4.0381,-4.0366,-4.0365,-4.0469,-4.0458,-4.0806,-4.0851,-4.0563,-4.0566,-4.0568,0,-3.9313,-3.9415,-3.9502,-3.9567,-3.9612,-3.9718,-3.9784,-3.9797,-3.9866,-3.9962,-4.004,-4.0151,-4.0241,-4.0424,-4.0466,-4.057,-4.0559,-4.0674,-4.0575,-4.057,-4.0559,-4.0552,-4.0562,-4.0692,-4.0696,-4.0698,-4.07,0,-3.9573,-3.9582,-3.9677,-3.9779,-3.9858,-3.9939,-4.0015,-4.007,-4.0093,-4.0172,-4.0288,-4.0358,-4.0496,-4.0607,-4.071,-4.0753,-4.0731,-4.0732,-4.0761,-4.076,-4.0747,-4.0754,-4.0416,-4.0723,-4.0721,-4.0719,-4.0718,-4.0717,-3.9756,-3.9845,-3.992,-4.0027,-4.0086,-4.0159,-4.0246,-4.0284,-4.0381,-4.0493,-4.0496,-4.0622,-4.0697,-4.0834,-4.0884,-4.0983,-4.0947,-4.099,-4.1001,-4.1011,-4.1019,-4.0733,-4.1002,-4.1001,-4.1001,-4.1,-4.1,0,-4.0013,-4.006,-4.0159,-4.0267,-4.0352,-4.0324,-4.0407,-4.048,-4.0591,-4.0663,-4.0752,-4.0886,-4.0993,-4.1045,-4.1151,-4.122,-4.1213,-4.1248,-4.1241,-4.1252,-4.1046,-4.1009,-4.1252,-4.1252,-4.1252,-4.1252,-4.1252,-4.1252,-4.0156,-4.0304,-4.0322,-4.0499,-4.0545,-4.0669,-4.0719,-4.0785,-4.0842,-4.0992,-4.1081,-4.1114,-4.1178,-4.1289,-4.1386,-4.1399,-4.1438,-4.1478,-4.1485,-4.1292,-4.1266,-4.1242,-4.1207,-4.1487,-4.1487,-4.1682,-4.1684,-4.1685]},{"header":{"parameterUnit":"m.s-1","parameterCategory":1,"la1":30.2991,"la2":30.254,"lo1":-89.0895,"lo2":-89.0444,"dy":0.0017,"dx":0.0017,"nx":28,"ny":28,"refTime":"2024-10-10T09:00:00:Z","depth":0,"parameterNumber":3,"parameterNumberName":"V-component_of_WINDS"},"data":[0,0,0,0,0,0,0,0,0,0,0,0,0,0,0,0,0,0,0,0,0,0,0,0,0,0,0,0,0,0,0,0,0,0,0,0,0,0,0,0,0,0,0,0,0,0,0,0,0,0,0,0,0,0,0,0,0,0,-1.0532,-1.0532,0,-1.049,-1.049,-1.0489,-1.0452,-1.0452,-1.0451,-1.0451,-1.0407,-1.0407,-1.0406,0,0,0,0,0,0,0,0,0,0,0,0,0,-1.058,-1.0579,-1.0532,-1.0532,-1.0531,-1.049,-1.049,-1.0489,-1.0452,-1.0452,-1.0451,-1.0451,-1.0408,-1.0407,-1.0406,0,0,0,0,0,0,0,0,0,0,0,0,0,-1.0551,-1.0579,-1.0532,-1.0508,-1.0505,-1.049,-1.049,-1.0489,-1.0452,-1.0452,-1.0451,-1.045,-1.0408,-1.0407,-1.0406,-1.0411,0,0,-1.0402,-1.0402,0,0,0,0,0,0,0,0,-1.0552,-1.0549,-1.0512,-1.051,-1.0507,-1.0476,-1.049,-1.0463,-1.0452,-1.0472,-1.0451,-1.045,-1.0431,-1.0427,-1.0421,-1.0409,-1.0407,-1.0402,-1.0401,-1.0401,-1.04,0,0,0,0,0,0,0,-1.0554,-1.055,-1.0515,-1.0511,-1.0508,-1.0499,-1.0494,-1.0485,-1.0456,-1.0471,-1.0468,-1.0463,-1.0429,-1.0422,-1.042,-1.0407,-1.0402,-1.0401,-1.04,-1.04,-1.0397,-1.0397,0,0,0,0,0,0,-1.056,-1.0552,-1.0517,-1.0514,-1.0528,-1.0498,-1.0493,-1.0486,-1.0456,-1.045,-1.0464,-1.0462,-1.0424,-1.0421,-1.0418,-1.0422,-1.0401,-1.04,-1.0399,-1.0396,-1.0397,-1.0398,0,0,0,0,0,0,-1.0561,-1.0557,-1.0519,-1.0533,-1.0527,-1.0498,-1.0491,-1.0486,-1.0479,-1.0451,-1.0445,-1.0463,-1.0424,-1.042,-1.0413,-1.042,-1.0399,-1.0398,-1.0395,-1.0396,-1.0397,-1.0432,0,0,0,0,0,0,-1.0563,-1.0558,-1.056,-1.0533,-1.0526,-1.0515,-1.0491,-1.0485,-1.0477,-1.0474,-1.0448,-1.0443,-1.0423,-1.0415,-1.0412,-1.0418,-1.0397,-1.0395,-1.0396,-1.0397,-1.043,-1.0433,-1.0437,0,0,0,0,0,-1.0565,-1.0571,-1.0561,-1.0556,-1.0528,-1.0515,-1.0511,-1.0489,-1.0478,-1.048,-1.0461,-1.0444,-1.042,-1.0415,-1.0411,-1.0417,-1.0394,-1.0396,-1.0397,-1.0428,-1.0433,-1.0437,0,0,0,0,0,0,-1.06,-1.0567,-1.0555,-1.0553,-1.0537,-1.0509,-1.0511,-1.0494,-1.0481,-1.0479,-1.0451,-1.0445,-1.0442,-1.0429,-1.0423,-1.0421,-1.0405,-1.0405,-1.043,-1.0434,-1.0437,-1.0441,-1.0396,0,0,0,0,0,-1.0608,-1.06,-1.0572,-1.0573,-1.0566,-1.054,-1.0533,-1.0517,-1.0499,-1.0492,-1.0473,-1.0457,-1.0446,-1.0439,-1.0427,-1.0427,-1.0421,-1.043,-1.0433,-1.0436,-1.0437,-1.0436,-1.044,-1.0402,-1.0402,-1.0402,0,0,-1.0624,-1.0605,-1.0602,-1.058,-1.0565,-1.0558,-1.0534,-1.0527,-1.0521,-1.0491,-1.0484,-1.047,-1.0449,-1.0446,-1.0444,-1.0435,-1.0446,-1.0438,-1.0441,-1.044,-1.0438,-1.0442,-1.0445,-1.0403,-1.0403,-1.0403,0,0,-1.0648,-1.0633,-1.0632,-1.0619,-1.0598,-1.058,-1.058,-1.0554,-1.0543,-1.0536,-1.0513,-1.0505,-1.0486,-1.0473,-1.0464,-1.0483,-1.0466,-1.0479,-1.0498,-1.0498,-1.0501,-1.0503,-1.051,-1.0513,-1.048,-1.0481,-1.0481,0,-1.067,-1.0659,-1.0634,-1.0628,-1.0619,-1.0592,-1.059,-1.0578,-1.0554,-1.0548,-1.0539,-1.0515,-1.0499,-1.0492,-1.0497,-1.049,-1.0489,-1.0483,-1.0502,-1.0505,-1.0507,-1.0513,-1.0515,-1.0482,-1.0482,-1.0482,-1.0482,0,-1.0687,-1.0679,-1.068,-1.0658,-1.0649,-1.0646,-1.0621,-1.0614,-1.0599,-1.0582,-1.0575,-1.0555,-1.0538,-1.0535,-1.052,-1.0526,-1.0521,-1.0508,-1.0491,-1.0512,-1.0518,-1.052,-1.0485,-1.0484,-1.0484,-1.0483,0,0,-1.0733,-1.0697,-1.0698,-1.0688,-1.0662,-1.0655,-1.0651,-1.0635,-1.063,-1.0614,-1.0609,-1.0594,-1.058,-1.057,-1.0553,-1.0552,-1.0568,-1.0538,-1.0537,-1.0545,-1.0574,-1.0585,-1.0589,-1.0557,-1.0557,-1.0558,-1.0576,0,-1.0754,-1.0744,-1.0722,-1.0719,-1.0711,-1.0684,-1.068,-1.0664,-1.0648,-1.0639,-1.0621,-1.0611,-1.0594,-1.0587,-1.0586,-1.0567,-1.0574,-1.0565,-1.0552,-1.0552,-1.0559,-1.0591,-1.0603,-1.0621,-1.0578,-1.0578,-1.0579,0,-1.0777,-1.0763,-1.0759,-1.0734,-1.073,-1.0727,-1.071,-1.0702,-1.0682,-1.0671,-1.0659,-1.064,-1.0633,-1.0617,-1.0608,-1.0602,-1.0595,-1.0585,-1.0585,-1.0584,-1.0567,-1.0591,-1.0627,-1.063,-1.0582,-1.0581,-1.0581,0,-1.0812,-1.0792,-1.0787,-1.0779,-1.0749,-1.0747,-1.0735,-1.0715,-1.0707,-1.0692,-1.0686,-1.0671,-1.0663,-1.0651,-1.0628,-1.0619,-1.0621,-1.0603,-1.0611,-1.0612,-1.0613,-1.0614,-1.0649,-1.0608,-1.0608,-1.0608,-1.0608,0,-1.0837,-1.0836,-1.0802,-1.0799,-1.0797,-1.0771,-1.0769,-1.0754,-1.0737,-1.073,-1.0706,-1.07,-1.067,-1.0661,-1.0643,-1.0638,-1.0634,-1.0625,-1.062,-1.0627,-1.0628,-1.0623,-1.0621,-1.0609,-1.0609,-1.0609,-1.0608,0,-1.0876,-1.0853,-1.0846,-1.0818,-1.0811,-1.0811,-1.0787,-1.0783,-1.0766,-1.0758,-1.0754,-1.0727,-1.0715,-1.0691,-1.0672,-1.066,-1.0659,-1.065,-1.0665,-1.0663,-1.0672,-1.0672,-1.0705,-1.0708,-1.0666,-1.0666,-1.0666,0,-1.0894,-1.0892,-1.0865,-1.0859,-1.0847,-1.0838,-1.0829,-1.0803,-1.0795,-1.0773,-1.0772,-1.0758,-1.0745,-1.0727,-1.0705,-1.0691,-1.0682,-1.0695,-1.068,-1.0687,-1.0683,-1.0683,-1.0683,-1.0698,-1.0699,-1.0699,-1.07,0,-1.0929,-1.0917,-1.0906,-1.0891,-1.0882,-1.0868,-1.0854,-1.085,-1.082,-1.0813,-1.08,-1.079,-1.0771,-1.0758,-1.074,-1.0726,-1.0708,-1.0705,-1.0706,-1.0713,-1.0722,-1.0718,-1.0675,-1.0704,-1.0704,-1.0703,-1.0703,-1.0703,-1.0958,-1.0955,-1.0935,-1.0923,-1.091,-1.0897,-1.0891,-1.0873,-1.0863,-1.0845,-1.083,-1.0819,-1.0799,-1.0773,-1.0761,-1.0752,-1.0743,-1.0745,-1.0745,-1.0746,-1.0749,-1.0724,-1.0748,-1.0748,-1.0748,-1.0748,-1.0748,0,-1.0991,-1.0977,-1.0967,-1.0947,-1.0938,-1.0921,-1.0904,-1.0898,-1.0888,-1.0871,-1.0859,-1.0845,-1.0831,-1.0809,-1.0793,-1.079,-1.0782,-1.0787,-1.0787,-1.0785,-1.0758,-1.0758,-1.0794,-1.0794,-1.0794,-1.0794,-1.0794,-1.0794,-1.1008,-1.1003,-1.0989,-1.0977,-1.0962,-1.0951,-1.0943,-1.0931,-1.0917,-1.0902,-1.0891,-1.0876,-1.0857,-1.084,-1.0827,-1.082,-1.0816,-1.0824,-1.0815,-1.0791,-1.0786,-1.0782,-1.0783,-1.0823,-1.0824,-1.0843,-1.0843,-1.0843]}]]